Simultaneous Nadir Overpasses (SNOs) Predictions

Prediction of SNOs between GOES-16 and LANDSAT-8 Satellite Orbit:

Table of predicted SNOs for the next 14.0 days since TLE Epoch: 5/28/2022
Index Date Time (GOES-16) GOES-16 Lat,Lon LANDSAT-8 Lat,Lon Distance(km) Time Diff (sec)
1 05/29/2022 03:06:07 -0.05, -75.18 0.35, -73.18 227.78 80
2 05/29/2022 15:24:44 0.04, -75.20 0.68, -78.35 357.35 80
3 05/31/2022 15:12:34 0.04, -75.20 0.10, -75.39 21.49 80
4 06/02/2022 15:03:05 0.03, -75.21 -0.56, -72.44 314.95 80
5 06/03/2022 03:24:29 -0.03, -75.20 -0.52, -77.64 276.63 80
6 06/05/2022 03:09:39 -0.02, -75.21 0.09, -74.68 60.53 80
7 06/07/2022 02:57:30 -0.02, -75.23 0.71, -71.73 398.45 80
8 06/07/2022 15:18:45 0.02, -75.25 0.38, -76.88 186.03 80
9 06/09/2022 15:09:15 0.02, -75.28 -0.25, -73.93 152.77 80
10 06/10/2022 03:30:40 -0.02, -75.27 -0.82, -79.13 438.02 80
